Regional Weather Roundup
Issued by NWS Grand Forks, ND

Home | Current Version | Previous Version | Graphics & Text | Print | Product List | Glossary On
Versions: 1 2 3 4 5 6 7 8 9 10 11 12 13 14 15 16 17 18 19 20 21 22 23 24 25 26 27 28 29 30 31 32 33 34 35 36 37 38 39 40 41 42 43 44 45 46 47 48 49 50
000
ASUS43 KFGF 220231
RWRFGF
PRAIRIE TO PINES  WEATHER ROUNDUP
NATIONAL WEATHER SERVICE EASTERN NORTH DAKOTA/GRAND FORKS ND
800 PM CST TUE FEB 21 2017

 **SATELLITE DATA USED TO AUGMENT SKY COVER AT AUTOMATED STATIONS**
 *****  WEATHER ACROSS EASTERN NORTH DAKOTA  *****

CITY           SKY/WX    TMP DP  RH WIND       PRES   REMARKS
GRAND FORKS    LGT RAIN  34  30  85 N5        29.69S VSB 1/4
GRAND FRKS AFB LGT RAIN  32  32 100 NE6       29.70S FOG
DEVILS LAKE    CLOUDY    35  32  88 S6        29.67S
FARGO          MOCLDY    41  39  93 W3        29.68S
WAHPETON ARPT    N/A     41  36  81 CALM      29.68F
$$

 ***** WEATHER ACROSS CENTRAL AND WESTERN NORTH DAKOTA  *****

CITY           SKY/WX    TMP DP  RH WIND       PRES   REMARKS
BISMARCK       MOCLDY    43  36  76 NE8       29.69R
MINOT          MOCLDY    40  35  83 SW3       29.66R
JAMESTOWN      CLOUDY    36  34  92 W6        29.69R
MINOT AFB      FAIR      32  30  93 N8        29.66R FOG     WCI  25
GARRISON         N/A     37  36  96 N6        29.67S
WILLISTON      CLOUDY    38  32  79 N13       29.67F
DICKINSON      FAIR      41  37  86 S5        29.58F
HETTINGER      FAIR      42  38  85 N15       29.71R
$$

 *****  OTHER AIRPORT OBSERVATIONS IN OUR AREA  *****

CITY           SKY/WX    TMP DP  RH WIND       PRES   REMARKS
WALHALLA       NOT AVBL
GRAFTON AIRPOR CLOUDY    30  30 100 NW7       29.73R FOG     WCI  23
VALLEY CITY AR CLOUDY    36  36 100 SW3       29.69S
CANDO          NOT AVBL
CAVALIER APRT  CLOUDY    32  32 100 NW5       29.71S FOG
GWINNER        FAIR      43  39  87 CALM      29.68F
SHEYENNE NWR     N/A     41  37  84 CALM      29.95S
ROLLA          FOG       28  28 100 N5        29.66F VSB 1   WCI  23
 ***** THE ABOVE OBSERVATIONS ARE NON NWS ARE NOT QUALITY
       CONTROLLED AND MAY MIS-REPORT RAIN FOR SNOW...
$$

  *****  WEATHER ACROSS NORTHERN MINNESOTA  *****

CITY           SKY/WX    TMP DP  RH WIND       PRES   REMARKS
FLAG ISLAND    CLOUDY    32  30  93 N7        29.69R
WARROAD        FAIR      30  28  93 E3        29.69S FOG
ROSEAU         FAIR      34  28  80 CALM      29.69R
HALLOCK        FAIR      34  32  93 W3        29.70S FOG
THF RVR FALLS  FAIR      34  33  96 SW6       29.70R
BAUDETTE       FAIR      34  31  88 N6        29.67R
WASKISH        FAIR      36  34  93 W5        29.67R
CROOKSTON      MIX PCPN  34  34 100 CALM      29.70F
STEPHEN NDAWN    N/A     30  30 100 NW5         N/A
GREENBUSH NDAW   N/A     30  30 100 CALM        N/A
$$
  *****  WEATHER ACROSS CENTRAL AND WEST MINNESOTA  *****

CITY           SKY/WX    TMP DP  RH WIND       PRES   REMARKS
FOSSTON        CLOUDY    36  34  93 SW3       29.70S
BEMIDJI        CLOUDY    39  36  89 W7        29.68R
PARK RAPIDS    CLOUDY    38  33  82 W5        29.67R
ELBOW LAKE     FAIR      39  38  94 CALM      29.70R
WADENA         CLOUDY    43  37  81 W6        29.69R
DETROIT LAKES  FAIR      39  36  87 CALM      29.69F
MOORHEAD       FAIR      39  37  93 CALM      29.69S
FERGUS FALLS   FAIR      41  39  93 SW3       29.73R
MORRIS MN      FAIR      45  43  93 CALM      29.68F
STAPLES        CLOUDY    39  37  93 W5        29.68R
$$
  *****  WEATHER ELSEWHERE ACROSS MINNESOTA  *****

CITY           SKY/WX    TMP DP  RH WIND       PRES   REMARKS
DULUTH         FAIR      41  34  76 CALM      29.66F
INTRNTL FALLS  FAIR      33  31  92 CALM      29.65F
ELY            NOT AVBL
CLOQUET        FAIR      39  36  87 CALM      29.66F
WHEATON        FAIR      43  41  93 E5        29.71R
BRAINERD       FAIR      41  37  86 W5        29.67S
HIBBING        FAIR      33  33 100 CALM      29.65F
ALEXANDRIA     MOCLDY    41  39  93 SW7       29.70R
SAINT CLOUD    FAIR      46  44  93 CALM      29.68F
MINNEAPOLIS    FAIR      52  44  74 SE5       29.70F
$$

  *****  WEATHER ACROSS SOUTH DAKOTA  *****

CITY           SKY/WX    TMP DP  RH WIND       PRES   REMARKS
SIOUX FALLS    FAIR      45  38  76 CALM      29.69F
BROOKINGS      FAIR      50  39  66 SE5       29.69S
WATERTOWN      FAIR      43  39  86 CALM      29.67S
HURON          FAIR      52  37  56 SE8       29.63F
SISSETON         N/A     40  38  93 CALM      29.67S
ABERDEEN       FAIR      45  38  76 E8        29.64F
MITCHELL       FAIR      52  38  58 S10       29.66F
PIERRE         FAIR      51  36  56 E7        29.60S
MOBRIDGE       FAIR      50  36  58 SE8       29.57F
RAPID CITY     FAIR      54  34  46 NW21      29.71R
$$

  *****  SOME WEATHER IN NEARBY STATES *****

CITY           SKY/WX    TMP DP  RH WIND       PRES   REMARKS
GLASGOW MT     CLOUDY    37  34  89 NE7       29.68R
GREAT FALLS MT FOG       36  34  92 E7        29.65R VSB 1/4
CHEYENNE WY    FAIR      49  15  25 W7        29.94F
SCOTTSBLUFF NE FAIR      63  19  18 W22G30    29.82F
OMAHA NE       FAIR      58  38  47 S13       29.79F
DES MOINES IA  FAIR      55  33  43 S7        29.83S
DAVENPORT IA   FAIR      48  42  80 S5        29.88S
CHICAGO IL     MOCLDY    56  50  80 S8        29.89F
EAU CLAIRE WI  FAIR      50  38  63 S8        29.73F
LA CROSSE WI   MOCLDY    54  39  57 S13       29.78S
$$

  *****  SOME NATIONAL WEATHER *****

CITY           SKY/WX    TMP DP  RH WIND       PRES   REMARKS
LA GUARDIA NY  CLOUDY    44  33  65 S9        30.19F
RALEIGH NC     MOCLDY    50  36  58 NE3       30.15R
ATLANTA GA     LGT RAIN  62  60  93 NE6       29.97F
NEW ORLEANS LA FAIR      61  59  93 W3        29.86R
OKLAHOMA CITY  FAIR      58  37  45 NW5       29.95S
ALBUQUERQUE NM FAIR      62  27  26 N9        30.19S
SALT LAKE CITY RAIN      39  36  89 NW23G29   30.09R FOG
LOS ANGELES CA MOCLDY    61  55  81 W10       30.23S
BOISE ID       CLOUDY    47  29  49 W12       29.98R
SEATTLE WA     MOCLDY    44  40  85 S5        30.04R
$$

*** WEATHER ACROSS MANITOBA...SASKATCHEWAN AND ONTARIO ***
                ***ONTARIO***

CITY           SKY/WX    TMP DP  RH WIND       PRES   REMARKS
GERALDTON      PTCLDY    28  27  93 SW3       29.68R
THUNDER BAY    PTCLDY    32  30  93 CALM      29.69F
SIOUX LOOKOUT  CLOUDY    36  30  80 W2        29.67R
TORONTO        MOCLDY    39  36  87 SE2       29.95R
BIG TROUT LK   FLURRIES  27  25  93 W15G21    29.53R WCI  15
PICKLE LAKE    FLURRIES  32  28  86 W10       29.62R WCI  24
DRYDEN         CLOUDY    34  30  86 NW3       29.67S
KENORA         CLOUDY    34  30  86 CALM      29.69R
$$
                *** MANITOBA***

CITY           SKY/WX    TMP DP  RH WIND       PRES   REMARKS
BRANDON        CLOUDY    34  30  86 NE5       29.70S
DAUPHIN        CLOUDY    32  28  86 VRB2      29.72R
ISLAND LAKE    FLURRIES  28  23  80 W7        29.61S WCI  21
PILOT MOUND      N/A     30  30 100 E5          N/A
THE PAS        CLOUDY    32  21  64 W7        29.68R
THOMPSON       FLURRIES  14   9  79 NW6       29.62R WCI   5
WINNIPEG       MOCLDY    32  32 100 VRB2      29.71S
LYNN LAKE      FLURRIES   9   5  85 N12G17    29.65R WCI  -6
CHURCHILL      FLURRIES   7   5  92 NE24G30   29.60  WCI -15
GILLAM         FLURRIES   9   3  78 W13G18    29.55R WCI  -7
$$
                ***SASKATCHEWAN***

CITY           SKY/WX    TMP DP  RH WIND       PRES   REMARKS
ESTEVAN        FOG       32  32 100 N6        29.70R VSB 1/4
KINDERSLEY     MOCLDY    28  25  86 SE7       29.75R WCI  21
LLOYDMINSTER   CLOUDY    28  27  93 SW6       29.73R WCI  22
PRINCE ALBERT  MOCLDY    30  23  74 SW6       29.73S WCI  24
REGINA         CLOUDY    34  27  75 N7        29.74
YORKTON        CLOUDY    32  27  80 NW9       29.72R WCI  24
N. BATTLEFORD  CLOUDY    32  27  80 SW2       29.77R
LA RONGE       CLOUDY    25  18  74 NW10G18   29.74R WCI  15
SASKATOON      CLOUDY    32  25  74 NW5       29.78S
SWIFT CURRENT  CLOUDY    30  28  93 NE6       29.72R WCI  24
$$
NOTE: THESE ARE AUTOMATED STATIONS WITH LIMITED QUALITY CONTROL
      "FAIR" INDICATES FEW OR NO CLOUDS BELOW 12,000 FEET WITH NO
      SIGNIFICANT WEATHER AND/OR OBSTRUCTIONS TO VISIBILITY.
      SKY/WX - SKY CONDITION AND SIGNIFICANT WEATHER.
      TMP - AIR TEMPERATURE.    DP   - DEWPOINT TEMPERATURE.
      RH  - RELATIVE HUMIDITY.  PRES - PRESSURE.
      HX  - HEAT INDEX.         WCI  - WIND CHILL INDEX.
$




USA.gov is the U.S. government's official web portal to all federal, state and local government web resources and services.